Malmö Sturup Airport

Jump to: basic info | weather | frequencies | runways | comments

Related pages: nearby airports | nearby navaids | notams | map

Basic information (top)

Codes: MMX ESMS
Location: lon 55.536305, lat 13.376198, elev 236 ft / 72 m msl
Status: large_airport
Scheduled airline service: yes
Links: Wikipedia Mobile

Weather (top)

Current conditions (rec'd 2014/11/26 14:20Z):

ESMS 261420Z 08005KT 9999 SCT012 BKN025 05/04 Q1024

Airport forecast (rec'd 2014/11/26 12:33Z):

TAF ESMS 261115Z 2612/2712 11005KT 9999 BKN018 
      TEMPO 2612/2618 BKN014

Frequencies (top)

Verify before use: may be inaccurate or out of date.

APP: 135.9 MHz (MALMO CON)
ATIS: 129.275 MHz (ATIS)
TWR: 118.8 MHz (TWR)

Runways (top)

11/29: 2,615 x 75 ft (797 x 23 m) — paved — not lighted

17/35: 9,186 x 148 ft (2,800 x 45 m) — paved — lighted

Latest comments (top)

ESMS Malmö Airport NDBs withdrawn: The two NDBs at Malmö Airport (NS and ... [read]

More... (top)

See also NOTAMs and nearby airports and navaids, or visit the Malmö Sturup Airport page at the main OurAirports website..